Location: Mercogliano
(40.9167°N, 14.7333°E)
Time: 07:26:12
(UTC+00:00)

Envisat - Visible Passes

Search period start: 26 November 2020 00:00
Search period end: 06 December 2020 00:00
Orbit: 764 x 766 km, 98.1° (Epoch: 25 November)

Date Brightness Start Highest point End Pass type
(mag) Time Alt. Az. Time Alt. Az. Time Alt. Az.
26 Nov 6.3 03:30:56 10° ENE 03:32:31 11° E 03:34:05 10° ESE visible
26 Nov 3.0 05:07:01 10° N 05:12:07 80° WNW 05:17:11 10° SSW visible
26 Nov 3.6 16:21:17 10° S 16:26:18 63° W 16:31:21 10° NNW visible
27 Nov 4.2 04:30:23 10° NNE 04:35:16 46° E 04:40:07 10° S visible
27 Nov 6.0 17:25:53 10° SW 17:28:55 16° W 17:31:59 10° NW visible
28 Nov 5.6 03:54:27 10° NE 03:58:13 21° E 04:01:59 10° SE visible
28 Nov 4.8 16:47:12 10° SSW 16:51:49 35° W 16:56:28 10° NNW visible
29 Nov 3.1 04:55:37 10° NNE 05:00:44 82° ESE 05:05:49 10° S visible
29 Nov 3.2 16:09:50 10° S 16:14:53 80° WSW 16:20:01 10° NNW visible
30 Nov 4.6 04:19:10 10° NNE 04:23:50 36° E 04:28:28 10° SSE visible
30 Nov 5.7 17:13:43 10° SW 17:17:26 20° W 17:21:09 10° NW visible
01 Dec 5.9 03:43:36 10° NE 03:46:44 16° E 03:49:50 10° SE visible
01 Dec 3.1 05:21:07 10° N 05:26:06 58° WNW 05:31:04 10° SSW visible
01 Dec 4.3 16:35:32 10° S 16:40:22 45° W 16:45:15 10° NNW visible
02 Dec 3.5 04:44:17 10° NNE 04:49:20 64° E 04:54:22 10° S visible
02 Dec 3.0 15:58:27 10° SSE 16:03:31 81° ENE 16:08:37 10° N visible
02 Dec 6.3 17:41:44 10° WSW 17:43:08 11° W 17:44:32 10° WNW visible
03 Dec 5.1 04:08:00 10° NE 04:12:22 28° E 04:16:43 10° SSE visible
03 Dec 5.3 17:01:46 10° SSW 17:05:56 26° W 17:10:09 10° NW visible
04 Dec 6.2 03:33:04 10° ENE 03:35:13 13° E 03:37:20 10° ESE visible
04 Dec 2.9 05:09:40 10° N 05:14:45 73° WNW 05:19:48 10° SSW visible
04 Dec 3.8 16:23:58 10° S 16:28:56 57° W 16:33:58 10° NNW visible
05 Dec 4.0 04:32:58 10° NNE 04:37:56 50° E 04:42:50 10° S visible
05 Dec 6.1 17:28:52 10° WSW 17:31:36 14° W 17:34:21 10° WNW visible
